Madison, WI

11:20 PM CDT on July 26, 2017 (GMT -0500)
Dane County Regional-Truax

Weather History for KMSN - February, 2013

Change the Weather History Date:

Saturday, February 2, 2013

  Actual Average Record
Temperature  
Mean Temperature 8 °F 20 °F  
Max Temperature 11 °F 28 °F 47 °F (1987)
Min Temperature 5 °F 12 °F -28 °F (1959)
Degree Days  
Heating Degree Days 57 45  
Month to date heating degree days 122 90  
Since 1 July heating degree days 4056 4403  
Cooling Degree Days 0 0  
Month to date cooling degree days 0 0  
Year to date cooling degree days 0 0  
Moisture  
Dew Point 2 °F    
Average Humidity 76    
Maximum Humidity 88    
Minimum Humidity 63    
Precipitation  
Precipitation 0.03 in 0.04 in 1.48 in (1983)
Month to date precipitation 0.10 0.08  
Year to date precipitation 2.97 1.31  
Snow  
Snow 0.80 in 0.50 in 6.60 in (1983)
Month to date snowfall 2.5 0.9  
Since 1 July snowfall 34.9 31.4  
Snow Depth 7.00 in    
Sea Level Pressure  
Sea Level Pressure 30.10 in    
Wind  
Wind Speed 5 mph (NE)    
Max Wind Speed 15 mph    
Max Gust Speed 78 mph    
Visibility 6 miles    
Events Snow    
T = Trace of Precipitation, MM = Missing Value Source: NWS Daily Summary

Daily Weather History Graph

Daily Weather History Graph

Search for Another Location

Airport or City:

Trip Planner

Search our weather history database for the weather conditions in past years. The results will help you decide how hot, cold, wet, or windy it might be!

Date:

Astronomy

Feb. 02, 2013 Rise Set
Actual Time 7:11 AM CST 5:11 PM CST
Civil Twilight 6:41 AM CST 5:41 PM CST
Nautical Twilight 6:07 AM CST 6:15 PM CST
Astronomical Twilight 5:33 AM CST 6:48 PM CST
Moon No Moon Rise 10:09 AM CST (2/2)
Length of Visible Light 11h 00m
Length of Day
10h 00m
Waning Gibbous, 59% of the Moon is Illuminated
Feb 2
Waning Gibbous
Feb 3
Last Quarter
Feb 10
New
Feb 17
First Quarter
Feb 25
Full

Hourly Weather History & Observations

Time (CST) Temp. Windchill Dew Point Humidity Pressure Visibility Wind Dir Wind Speed Gust Speed Precip Events Conditions
12:00 AM 6.8 °F -4.8 °F 1.4 °F 79% 30.09 in 2.0 mi South 6.9 mph - 0.00 in Snow Light Snow
12:09 AM 6.8 °F -3.5 °F 1.4 °F 79% 30.09 in 4.0 mi South 5.8 mph - 0.00 in Snow Light Snow
12:22 AM 6.8 °F -2.0 °F 1.4 °F 79% 30.08 in 1.8 mi SSE 4.6 mph - 0.01 in Snow Light Snow
12:53 AM 7.0 °F -1.7 °F 3.0 °F 84% 30.13 in 1.8 mi SSE 4.6 mph - 0.01 in Snow Light Snow
1:06 AM 6.8 °F -2.0 °F 3.2 °F 85% 30.06 in 2.0 mi South 4.6 mph - 0.01 in Snow Light Snow
1:20 AM 6.8 °F -0.1 °F 3.2 °F 85% 30.05 in 1.5 mi South 3.5 mph - 0.01 in Snow Light Snow
1:35 AM 6.8 °F - 3.2 °F 85% 30.05 in 2.5 mi Calm Calm - 0.02 in Snow Light Snow
1:53 AM 8.1 °F - 3.0 °F 80% 30.12 in 2.0 mi Calm Calm - 0.02 in Snow Light Snow
2:12 AM 8.6 °F - 3.2 °F 79% 30.05 in 2.5 mi Calm Calm - 0.00 in Snow Light Snow
2:53 AM 8.6 °F 2.0 °F 3.2 °F 79% 30.04 in 3.0 mi NE 3.5 mph - N/A Snow Light Snow
3:49 AM 8.6 °F 2.0 °F 3.2 °F 79% 30.02 in 6.0 mi NNE 3.5 mph - 0.00 in Snow Light Snow
3:53 AM 8.1 °F -0.5 °F 3.0 °F 80% 30.08 in 6.0 mi NNE 4.6 mph - 0.00 in Snow Light Snow
4:53 AM 7.0 °F -3.3 °F 3.0 °F 84% 30.08 in 4.0 mi North 5.8 mph - 0.00 in Snow Light Snow
5:14 AM 6.8 °F -4.8 °F 3.2 °F 85% 30.02 in 3.0 mi NNE 6.9 mph - 0.00 in Snow Light Snow
5:53 AM 7.0 °F -4.5 °F 3.0 °F 84% 30.09 in 6.0 mi NNE 6.9 mph - 0.00 in Snow Light Snow
6:53 AM 7.0 °F -8.3 °F 1.9 °F 80% 30.11 in 9.0 mi North 11.5 mph - 0.00 in Snow Light Snow
7:27 AM 6.8 °F -7.8 °F 1.4 °F 79% 30.06 in 9.0 mi North 10.4 mph - 0.00 in Snow Light Snow
7:53 AM 6.1 °F -8.7 °F 1.0 °F 80% 30.13 in 9.0 mi North 10.4 mph - 0.00 in Snow Light Snow
8:53 AM 6.1 °F -9.5 °F -0.0 °F 76% 30.15 in 9.0 mi North 11.5 mph - 0.00 in Snow Light Snow
9:53 AM 7.0 °F -7.5 °F -0.0 °F 73% 30.15 in 9.0 mi North 10.4 mph - 0.00 in   Overcast
10:53 AM 8.1 °F -4.3 °F -0.0 °F 70% 30.15 in 10.0 mi North 8.1 mph - N/A   Scattered Clouds
11:53 AM 9.0 °F -4.2 °F -0.0 °F 67% 30.14 in 10.0 mi North 9.2 mph - N/A   Partly Cloudy
12:53 PM 10.0 °F -0.9 °F -0.0 °F 64% 30.14 in 10.0 mi NNW 6.9 mph - N/A   Partly Cloudy
1:53 PM 10.9 °F -1.8 °F -0.0 °F 61% 30.14 in 10.0 mi NNW 9.2 mph - N/A   Clear
2:53 PM 10.0 °F 1.8 °F -0.9 °F 61% 30.14 in 10.0 mi North 4.6 mph - N/A   Clear
3:53 PM 10.0 °F 3.6 °F -0.0 °F 64% 30.14 in 10.0 mi ENE 3.5 mph - N/A   Clear
4:53 PM 9.0 °F - -0.9 °F 64% 30.14 in 10.0 mi Calm Calm - N/A   Partly Cloudy
5:53 PM 8.1 °F - 1.0 °F 73% 30.15 in 10.0 mi Calm Calm - N/A   Overcast
6:53 PM 7.0 °F - -0.0 °F 73% 30.14 in 10.0 mi Calm Calm - N/A   Overcast
7:53 PM 8.1 °F - 1.0 °F 73% 30.13 in 10.0 mi Calm Calm - N/A   Mostly Cloudy
8:53 PM 8.1 °F - 1.0 °F 73% 30.10 in 10.0 mi Calm Calm - N/A   Scattered Clouds
9:53 PM 7.0 °F -3.3 °F 1.0 °F 77% 30.09 in 10.0 mi South 5.8 mph - N/A   Clear
10:53 PM 8.1 °F -2.0 °F 1.9 °F 76% 30.07 in 10.0 mi South 5.8 mph - N/A   Overcast
11:45 PM 8.6 °F -1.3 °F 3.2 °F 79% 29.99 in 2.0 mi South 5.8 mph - 0.00 in Snow Light Snow
11:53 PM 8.1 °F -3.2 °F 3.0 °F 80% 30.04 in 2.0 mi South 6.9 mph - 0.00 in Snow Light Snow